Location: Unspecified
(9.9280°N, 84.0910°W)
Time: 04:32:00
(UTC+00:00)

Daily predictions for brighter satellites

Satellite Brightness Start Highest point End
(mag) Time Altitude Azimuth Time Altitude Azimuth Time Altitude Azimuth
Cosmos 1634 Rocket 4.4 00:17:49 10° NNE 00:23:36 42° E 00:29:22 10° SSE
BREEZE-M DEB (TANK) 3.1 00:24:50 10° N 00:26:45 29° ENE 00:30:05 10° SE
Cosmos 1242 Rocket 3.6 00:24:34 10° NNE 00:27:22 23° E 00:30:09 10° SE
Cosmos 2221 4.4 00:25:38 10° ENE 00:27:30 12° E 00:29:21 10° ESE
NOSS 2-1 (E) 3.3 00:26:10 10° SSW 00:30:52 75° ESE 00:34:28 10° NNE
Cosmos 1437 Rocket 2.9 00:28:34 10° N 00:32:30 57° E 00:36:31 10° SSE
YAOGAN 1 2.8 00:30:14 10° SSE 00:34:25 50° ENE 00:38:35 10° N
CZ-4 R/B 1.5 00:30:36 10° SSE 00:34:41 58° ENE 00:38:48 10° N
SL-08 RB Rocket 4.0 00:32:41 10° SSE 00:37:10 49° ENE 00:41:38 10° N
Cosmos 1869 3.2 00:34:38 10° N 00:38:28 86° W 00:42:21 10° S
Cosmos 2058 3.6 00:35:06 10° SSW 00:39:11 59° W 00:43:18 10° N
H-2A R/B 2.9 00:35:19 10° S 00:40:32 54° WSW 00:45:37 10° NNW
Cosmos 2098 Rocket 2.8 00:43:50 10° SSE 00:46:28 32° E 00:49:17 10° NNE
Cosmos 1076 Rocket 3.5 00:46:27 10° S 00:50:42 62° E 00:54:58 10° NNE
ARIANE 5 DEB (SYLDA) 4.4 00:47:04 10° WSW 00:52:37 49° SSE 01:05:51 18° E
ARIANE 44LP R/B 3.2 00:54:17 10° SW 00:55:43 16° S 00:55:53 16° S
Meteor 2-2 Rocket 4.3 00:53:03 10° N 00:58:31 52° E 01:03:50 11° SSE
GPS 2-17 Rocket1 3.4 00:56:22 10° SW 01:00:49 47° SSE 01:02:57 27° E
ATLAS 5 CENTAUR R/B 1.6 00:57:50 10° WNW 01:01:09 25° N 01:02:05 19° NE
OAO 2 Rocket 3.8 00:57:36 10° NW 01:02:32 46° NNE 01:04:58 26° E
CSL-04 Rocket 4.0 00:59:04 17° SE 01:02:59 45° ENE 01:08:05 10° N
GENESIS II 4.1 01:00:18 10° NNW 01:04:11 88° ENE 01:06:23 25° SSE
Cosmos 2279 Rocket 4.0 00:59:14 10° N 01:05:20 62° E 01:11:28 10° SSE
Cosmos 1980 Rocket 2.9 01:02:55 10° N 01:07:56 33° ENE 01:09:29 28° ESE
Okean-O 2.5 01:03:37 10° SSE 01:08:00 87° E 01:12:26 10° N
ARGOS 4.2 01:04:20 10° S 01:09:30 46° WSW 01:14:40 10° NNW
Hubble Space Telescope 2.0 01:07:24 10° NW 01:11:00 29° NNE 01:12:14 24° NE
Nadezhda 4 Rocket 3.9 01:06:59 10° S 01:13:07 85° E 01:19:18 10° N
IRS-1C Rocket 4.4 01:07:55 10° S 01:13:09 67° WSW 01:18:23 10° NNW
OBJECT-B 3.0 01:17:35 15° NNE 01:17:35 15° NNE 01:18:25 10° NNE
Centaur AC-116 4.0 01:02:47 10° WSW 01:17:41 77° NNW 01:19:58 25° NE
IUS-18 SRM-1 4.4 01:06:18 10° WNW 01:17:50 31° N 01:20:17 19° NE
ATLAS 3B R/B 3.8 01:13:02 10° N 01:19:04 27° ENE 01:20:27 25° E
Cosmos 2369 3.6 01:17:52 10° N 01:23:30 75° ENE 01:26:06 33° SSE
ARIANE 5 R/B 3.5 01:09:55 10° W 01:25:51 47° SSW 01:27:04 38° SSE
CZ-3C R/B 3.6 01:10:17 10° W 01:26:03 24° SW 01:29:53 13° S
Centaur D-1AR AC-36 3.8 01:22:44 10° W 01:27:22 44° S 01:34:17 26° SE
Cosmos 2151 3.5 01:31:45 10° SSW 01:35:53 56° W 01:40:01 10° N
USA 186 4.3 01:47:23 17° NNW 01:47:23 17° NNW 01:48:12 10° NNW
COSMOS 2455 2.6 01:41:06 10° SSW 01:47:05 80° ESE 01:53:05 10° NNE
ATLAS 2A CENTAUR R/B 3.9 01:02:48 10° WNW 01:48:09 85° NNE 01:52:32 45° ESE
SL-16 R/B 4.3 01:52:03 10° NNE 01:52:49 13° NNE 01:52:49 13° NNE
Centaur D AC-25 3.9 01:26:47 10° WNW 02:10:49 78° NNE 02:12:23 62° E
Lacrosse 5 3.9 02:09:18 10° SW 02:10:41 18° SW 02:10:41 18° SW
Cosmos 371 Rocket 4.5 02:09:49 10° NNW 02:12:59 39° NW 02:12:59 39° NW
Palapa B4 Rocket 4.5 02:14:42 10° W 02:19:42 45° W 02:19:42 45° W
Ariane H10+ 4.2 02:36:41 10° WSW 02:45:04 74° S 02:46:36 70° SE
Cosmos 1980 Rocket 4.5 02:47:56 10° WNW 02:51:18 18° W 02:51:18 18° W
ATLAS 3B R/B 4.2 03:02:51 10° NW 03:07:44 34° W 03:07:44 34° W
Lacrosse 5 rocket 4.3 08:52:06 15° NNE 08:52:06 15° NNE 08:52:56 10° NNE
NOSS 3-4 (A) 4.3 08:42:34 10° NNW 08:52:16 57° SE 08:58:43 10° SSE
NOSS 3-4 (C) 4.1 08:42:41 10° NNW 08:50:30 76° ENE 08:58:50 10° SSE
ATLAS 2AS CENTAUR R/B 4.0 08:53:06 10° N 08:59:04 34° ENE 09:04:44 10° SE
CZ-2C R/B 4.0 09:07:31 15° NNE 09:07:31 15° NNE 09:08:24 10° NNE
ARIANE 5 R/B 4.2 09:27:29 28° SE 09:27:29 28° SE 09:29:23 10° ESE
FENGYUN 3A 3.8 09:24:38 10° N 09:29:08 60° NNW 09:29:08 60° NNW
Cosmos 1777 Rocket 4.4 09:29:16 51° SE 09:30:12 60° ESE 09:35:23 10° NNE
Longmarch 3A Rocket 2.6 09:30:32 67° N 09:30:32 67° N 09:33:19 10° NE
SJ 16-02 3.1 09:29:42 23° SE 09:31:14 29° E 09:35:00 10° NE
GPS 2-14 Rocket1 4.2 09:33:03 32° NNE 09:33:03 32° NNE 09:35:33 10° ENE
Cosmos 1544 Rocket 3.9 09:34:32 65° ENE 09:34:32 65° ENE 09:38:35 10° N
USA 215 3.2 09:28:42 10° NNE 09:35:07 63° NW 09:36:09 56° W
Cosmos 1605 Rocket 4.3 09:36:04 48° WNW 09:36:04 48° WNW 09:41:20 10° N
Cosmos 1300 4.1 09:35:54 34° ESE 09:36:25 35° E 09:39:54 10° NNE
GPS 2-17 Rocket1 3.2 09:39:30 71° NNE 09:39:33 71° NNE 09:44:12 10° ESE
Cosmos 1892 Rocket 4.5 09:37:21 10° NNE 09:41:30 46° E 09:45:39 10° SSE
SL-08 R/B 3.5 09:45:40 56° WNW 09:45:40 56° WNW 09:49:50 10° NNW
Cosmos 2100 Rocket 4.5 09:39:05 10° S 09:45:19 60° E 09:51:28 10° NNE
CZ-2C R/B 4.2 09:42:18 10° NNW 09:43:43 17° NNW 09:43:43 17° NNW
OAO 3 Rocket 3.0 09:47:38 67° NW 09:47:42 67° NW 09:52:19 10° NE
Cosmos 1153 Rocket 4.4 09:47:00 41° SSW 09:49:14 68° W 09:55:23 10° N
SWIFT 3.1 09:50:36 40° SSE 09:50:36 40° SSE 09:54:34 10° E
Cosmos 1943 Rocket 2.0 09:55:12 42° SSW 09:57:03 73° WNW 10:02:31 10° N
Cosmos 2208 Rocket 4.1 09:55:31 10° NNW 10:00:28 49° WSW 10:03:20 24° SSW
Delta 168 2.7 10:02:30 52° NNW 10:02:31 52° NNW 10:06:10 10° NE
Cosmos 1703 3.7 10:00:04 10° N 10:03:51 59° E 10:07:41 10° SSE
Cosmos 1484 Rocket 3.4 10:02:09 10° N 10:05:28 38° WNW 10:05:28 38° WNW
Cosmos 1459 Rocket 3.8 10:03:11 10° S 10:09:13 87° W 10:15:18 10° N
MOS 1 Rocket 3.4 10:05:50 10° S 10:10:53 86° WSW 10:16:13 10° NNW
Lacrosse 4 Rocket 1.4 10:11:05 40° SW 10:12:21 59° WNW 10:16:29 10° N
ALOS 3.8 10:11:33 10° NNW 10:14:02 19° WNW 10:14:02 19° WNW
Cosmos 2369 Rocket 2.3 10:14:51 10° S 10:20:32 78° ESE 10:26:14 10° NNE
NATO 3D Rocket 4.1 10:20:24 11° WNW 10:24:47 46° NNE 10:29:33 10° E
Ariane H10-3 3.4 10:24:21 24° SW 10:25:52 35° S 10:34:14 10° ESE
Cosmos 2173 Rocket 4.1 10:20:46 10° SSW 10:27:00 57° W 10:33:12 10° N
Cosmos 1455 4.5 10:25:46 10° SSE 10:28:56 26° E 10:32:04 10° NE
RESURS DK-1 2.8 10:27:27 10° N 10:31:30 65° ENE 10:35:34 10° SSE
H-2A R/B 2.7 10:27:52 10° NNE 10:31:33 79° E 10:35:15 10° S
GPS 2-15 Rocket1 3.4 10:30:34 20° W 10:33:39 58° NNW 10:38:14 10° ENE
ASTRO E2 4.4 10:33:47 15° SSW 10:33:47 15° SSW 10:36:10 10° S
CZ-4B R/B 4.1 10:31:27 10° N 10:35:49 66° WNW 10:40:15 10° SSW
COSMOS 2406 3.2 10:30:42 10° NNW 10:36:26 77° WSW 10:42:11 10° S
Meteor 1-21 Rocket 4.4 10:31:31 10° NNW 10:36:48 45° W 10:42:02 10° SSW
Cosmos 836 Rocket 4.4 10:33:02 10° NNW 10:38:12 68° WSW 10:43:24 10° S
Meteor 1-31 Rocket 2.8 10:34:35 10° N 10:38:23 58° W 10:42:12 10° SSW
Cosmos 2263 4.3 10:33:26 10° SSW 10:39:10 81° ESE 10:44:51 10° NNE
Okean 1-7 Rocket 3.7 10:36:40 10° NNW 10:41:07 54° W 10:45:33 10° S
Cosmos 1656 Rocket 3.9 10:35:48 10° S 10:41:25 76° ESE 10:47:05 10° NNE
Cosmos 2016 Rocket 3.9 10:38:03 10° SSW 10:44:04 65° W 10:50:09 10° N
YAOGAN 6 2.6 10:45:08 10° N 10:48:45 61° WNW 10:52:23 10° SSW
Cosmos 389 Rocket 4.3 10:48:49 13° W 10:49:27 13° W 10:51:10 10° NW
ATLAS 2AS CENTAUR R/B 3.5 10:44:40 10° WNW 10:49:33 22° WSW 10:54:18 10° SSW
Ariane H10 3.9 10:47:18 10° SSW 10:49:53 19° SSE 10:54:57 10° ESE
CZ-3 R/B 4.3 10:27:58 10° W 10:51:14 32° NNW 10:58:46 10° NE
Envisat 3.0 10:46:31 10° N 10:51:33 68° WNW 10:56:35 10° SSW
ADEOS 3.7 10:46:55 10° N 10:52:01 58° WNW 10:57:07 10° SSW
COSMO-SKYMED 1 4.1 10:50:27 10° SSE 10:54:33 42° ENE 10:58:38 10° N
Meteor 1-11 4.3 10:48:48 10° N 10:54:36 89° E 11:00:21 10° S
Cosmos 1833 Rocket 3.1 10:51:45 10° NW 10:56:53 38° WSW 11:02:02 10° S
Meteor 2-10 Rocket 3.7 10:52:15 10° SSW 10:57:00 44° W 11:01:45 10° NNW
Cosmos 990 Rocket 4.0 10:59:56 10° SSW 11:05:04 66° WNW 11:10:11 10° N
Cosmos 2058 Rocket 4.1 11:00:51 10° SSE 11:05:06 50° E 11:09:18 10° NNE
ARIANE 5 R/B 4.3 02:41:52 10° WSW 11:07:59 69° S 11:14:02 10° ESE
